Flag for U.S.A. Weather past 2 weeks in Flint, Michigan, U.S.A.

Now
54 °F

Passing clouds.


Feels Like: 51 °F
Forecast: 46 / 63 °F
Wind: 9 mph from Southwest

Location: Bishop International Airport

Current Time: Oct 25, 2014 at 8:13:59 AM

Latest Report: Oct 25, 2014 at 7:53 AM


Visibility: 8 mi

Pressure: 29.82 "Hg

Humidity: 77%

Dew point: 47 °F

Location of FlintLocation

Historic Weather in Flint — Graph

°F

Flint temperature yesterday

Maximum temperature yesterday: 63 °F (at 3:53 PM)
Minimum temperature yesterday: 35 °F (at 1:53 AM)
Average temperature yesterday: 49 °F

Past Weeks' High & Low Weather Summary

 TemperatureHumidityPressure
High71 °F (Oct 14, 2:53 AM)100% (Oct 23, 9:53 AM)30.39 "Hg (Oct 23, 9:53 AM)
Low29 °F (Oct 23, 6:58 AM)38% (Oct 11, 4:53 PM)29.47 "Hg (Oct 17, 2:53 PM)
Average51 °F75%29.98 "Hg
* Reported Oct 10 6:53 AM — Oct 25 6:53 AM, Flint, Weather by CustomWeather, © 2014

Note: Actual official high and low records may vary slightly from our data, if they occured in-between our weather recording intervals... More about our weather records

Advertising

Flint weather history for previous 24 hours

 ConditionsComfort  
Time TempWeatherWind HumidityBarometerVisibility
6:53 AM
Oct 25
54 °FOvercast.9 mph77%29.84 "Hg7 mi
5:53 AM54 °FOvercast.6 mph77%29.85 "Hg7 mi
4:53 AM51 °FOvercast.8 mph83%29.86 "Hg5 mi
3:53 AM48 °FFog.6 mph89%29.88 "Hg4 mi
2:53 AM45 °FFog.5 mph90%29.91 "Hg3 mi
1:53 AM49 °FFog.3 mph86%29.93 "Hg5 mi
12:53 AM49 °FClear.5 mph84%29.94 "Hg7 mi
11:53 PM
Oct 24
51 °FClear.5 mph80%29.96 "Hg8 mi
10:53 PM52 °FClear.6 mph80%29.96 "Hg10 mi
9:53 PM55 °FClear.5 mph74%29.97 "Hg10 mi
8:53 PM57 °FPassing clouds.6 mph72%29.97 "Hg10 mi
7:53 PM57 °FOvercast.3 mph72%29.98 "Hg10 mi
6:53 PM59 °FOvercast.No wind67%29.97 "Hg10 mi
5:53 PM59 °FPartly sunny.6 mph67%29.98 "Hg10 mi
4:53 PM60 °FOvercast.7 mph65%29.98 "Hg10 mi
3:53 PM63 °FPartly sunny.9 mph56%29.98 "Hg10 mi
2:53 PM60 °FPartly sunny.6 mph60%29.99 "Hg9 mi
1:53 PM59 °FOvercast.3 mph62%30.03 "Hg8 mi
12:53 PM56 °FOvercast.6 mph67%30.05 "Hg9 mi
11:53 AM54 °FOvercast.5 mph69%30.07 "Hg8 mi
10:53 AM49 °FOvercast.5 mph77%30.08 "Hg6 mi
9:53 AM46 °FOvercast.5 mph79%30.10 "Hg5 mi
8:59 AM40 °FMostly cloudy.No wind89%30.08 "Hg8 mi
Weather by CustomWeather, © 2014

See weather overviewHow to use our weather pages